BAW348W LKPR-EGLL

Flight info

Callsign BAW348W
Flight time 1h 39m
Altitude 38000
Route BALTU DCT DONAD DCT RAPET Z93 KODUK DCT MASEK DCT ARPEG DCT ABNED L980 LOGAN
Aircraft A320/M-SDE3FGHIRWY/LB1

Departure

Time 2026-05-06 18:49
Airport Václav Havel Airport Prague (LKPR)

Arrival

Time 2026-05-06 20:29
Airport London Heathrow Airport (EGLL)
Time Latitude Longitude Altitude Speed Heading
2026-05-06 17:51 50.10928 14.26598 1169 ft 0 kts 214°
2026-05-06 18:18 50.10930 14.26600 1174 ft 2 kts 214°
2026-05-06 18:18 50.10952 14.26622 1169 ft 4 kts 212°
2026-05-06 18:18 50.10972 14.26647 1171 ft 4 kts 244°
2026-05-06 18:19 50.10974 14.26661 1171 ft 4 kts 328°
2026-05-06 18:19 50.10951 14.26683 1169 ft 4 kts 326°
2026-05-06 18:19 50.10932 14.26705 1170 ft 1 kts 319°
2026-05-06 18:24 50.10935 14.26700 1171 ft 3 kts 319°
2026-05-06 18:24 50.10968 14.26665 1174 ft 8 kts 327°
2026-05-06 18:24 50.11028 14.26607 1171 ft 12 kts 328°
2026-05-06 18:25 50.11072 14.26494 1171 ft 14 kts 280°
2026-05-06 18:25 50.11085 14.26328 1168 ft 7 kts 269°
2026-05-06 18:25 50.11070 14.26223 1164 ft 13 kts 245°
2026-05-06 18:25 50.11026 14.26079 1161 ft 17 kts 245°
2026-05-06 18:26 50.10963 14.25914 1163 ft 18 kts 221°
2026-05-06 18:26 50.10858 14.25800 1164 ft 19 kts 214°
2026-05-06 18:26 50.10747 14.25683 1169 ft 18 kts 213°
2026-05-06 18:26 50.10680 14.25611 1170 ft 7 kts 219°
2026-05-06 18:27 50.10678 14.25609 1171 ft 0 kts 219°
2026-05-06 18:28 50.10676 14.25605 1171 ft 3 kts 225°
2026-05-06 18:29 50.10680 14.25520 1169 ft 12 kts 298°
2026-05-06 18:29 50.10715 14.25424 1166 ft 0 kts 299°
2026-05-06 18:29 50.10716 14.25424 1166 ft 0 kts 299°
2026-05-06 18:29 50.10716 14.25422 1166 ft 1 kts 299°
2026-05-06 18:30 50.10726 14.25393 1163 ft 1 kts 299°
2026-05-06 18:30 50.10739 14.25358 1162 ft 4 kts 299°
2026-05-06 18:30 50.10749 14.25330 1161 ft 1 kts 299°
2026-05-06 18:30 50.10750 14.25328 1159 ft 0 kts 299°
2026-05-06 18:31 50.10757 14.25309 1159 ft 6 kts 299°
2026-05-06 18:32 50.10765 14.25286 1157 ft 0 kts 299°
2026-05-06 18:32 50.10767 14.25279 1157 ft 3 kts 299°
2026-05-06 18:32 50.10784 14.25234 1156 ft 5 kts 299°
2026-05-06 18:32 50.10789 14.25218 1157 ft 1 kts 299°
2026-05-06 18:33 50.10797 14.25195 1156 ft 4 kts 296°
2026-05-06 18:33 50.10802 14.25173 1157 ft 0 kts 288°
2026-05-06 18:36 50.10802 14.25172 1157 ft 1 kts 288°
2026-05-06 18:36 50.10805 14.25156 1157 ft 3 kts 287°
2026-05-06 18:37 50.10811 14.25118 1147 ft 5 kts 280°
2026-05-06 18:37 50.10813 14.25093 1157 ft 0 kts 276°
2026-05-06 18:44 50.10813 14.25084 1157 ft 3 kts 276°
2026-05-06 18:44 50.10818 14.25009 1156 ft 11 kts 274°
2026-05-06 18:45 50.10817 14.24849 1153 ft 18 kts 264°
2026-05-06 18:45 50.10790 14.24658 1159 ft 16 kts 251°
2026-05-06 18:45 50.10748 14.24645 1161 ft 0 kts 127°
2026-05-06 18:48 50.10747 14.24648 1160 ft 2 kts 127°
2026-05-06 18:48 50.10653 14.24842 1162 ft 55 kts 127°
2026-05-06 18:49 50.10294 14.25587 1184 ft 113 kts 127°
2026-05-06 18:49 50.09726 14.26762 1212 ft 157 kts 126°
2026-05-06 18:49 50.09073 14.28105 1815 ft 149 kts 126°
2026-05-06 18:49 50.08451 14.29394 2432 ft 152 kts 126°
2026-05-06 18:50 50.07769 14.30807 2755 ft 175 kts 126°
2026-05-06 18:50 50.06993 14.32415 3073 ft 197 kts 126°
2026-05-06 18:50 50.06117 14.34226 3344 ft 222 kts 127°
2026-05-06 18:50 50.05133 14.36248 3749 ft 247 kts 128°
2026-05-06 18:51 50.04053 14.38461 4347 ft 264 kts 129°
2026-05-06 18:51 50.02925 14.40774 4870 ft 272 kts 129°
2026-05-06 18:51 50.01783 14.43118 5060 ft 273 kts 129°
2026-05-06 18:51 50.00817 14.45680 5979 ft 278 kts 112°
2026-05-06 18:52 50.00540 14.48685 6852 ft 288 kts 88°
2026-05-06 18:52 50.01096 14.51703 7662 ft 297 kts 62°
2026-05-06 18:52 50.02440 14.54160 8450 ft 304 kts 37°
2026-05-06 18:52 50.04146 14.56144 9278 ft 308 kts 35°
2026-05-06 18:53 50.05893 14.58142 9973 ft 318 kts 35°
2026-05-06 18:53 50.07746 14.60256 10217 ft 342 kts 34°
2026-05-06 18:53 50.09873 14.62054 10618 ft 354 kts 17°
2026-05-06 18:53 50.12294 14.62734 11276 ft 355 kts 357°
2026-05-06 18:54 50.14705 14.62114 11979 ft 351 kts 336°
2026-05-06 18:54 50.16806 14.60250 12689 ft 347 kts 315°
2026-05-06 18:54 50.18349 14.57400 13410 ft 343 kts 296°
2026-05-06 18:54 50.19172 14.53945 14060 ft 340 kts 277°
2026-05-06 18:55 50.19316 14.50281 14695 ft 340 kts 268°
2026-05-06 18:55 50.19341 14.46576 15343 ft 343 kts 267°
2026-05-06 18:55 50.19364 14.42842 15724 ft 345 kts 267°
2026-05-06 18:55 50.19386 14.39083 16309 ft 348 kts 267°
2026-05-06 18:56 50.19409 14.35293 16960 ft 351 kts 267°
2026-05-06 18:56 50.19433 14.31464 17550 ft 355 kts 267°
2026-05-06 18:56 50.19462 14.27586 18144 ft 359 kts 267°
2026-05-06 18:56 50.19490 14.23716 18714 ft 363 kts 267°
2026-05-06 18:57 50.19516 14.19769 19308 ft 365 kts 267°
2026-05-06 18:57 50.19539 14.15826 19906 ft 368 kts 266°
2026-05-06 18:57 50.19558 14.11820 20489 ft 371 kts 266°
2026-05-06 18:57 50.19573 14.07769 21050 ft 374 kts 266°
2026-05-06 18:58 50.19588 14.03700 21592 ft 377 kts 266°
2026-05-06 18:58 50.19604 13.99594 22144 ft 380 kts 266°
2026-05-06 18:58 50.19619 13.95458 22694 ft 383 kts 266°
2026-05-06 18:58 50.19631 13.91297 23240 ft 386 kts 266°
2026-05-06 18:59 50.19642 13.87093 23734 ft 388 kts 266°
2026-05-06 18:59 50.19653 13.82870 24205 ft 390 kts 266°
2026-05-06 18:59 50.19664 13.78628 24680 ft 392 kts 266°
2026-05-06 18:59 50.19673 13.74378 25135 ft 393 kts 266°
2026-05-06 19:00 50.19681 13.70101 25593 ft 395 kts 266°
2026-05-06 19:00 50.19686 13.65812 26039 ft 396 kts 266°
2026-05-06 19:00 50.19690 13.61502 26465 ft 398 kts 266°
2026-05-06 19:00 50.19691 13.57182 26886 ft 399 kts 266°
2026-05-06 19:01 50.19691 13.52836 27298 ft 401 kts 266°
2026-05-06 19:01 50.19686 13.48475 27671 ft 403 kts 266°
2026-05-06 19:01 50.19681 13.44098 27763 ft 403 kts 266°
2026-05-06 19:01 50.19675 13.39714 28150 ft 405 kts 266°
2026-05-06 19:02 50.19669 13.35307 28582 ft 407 kts 266°
2026-05-06 19:02 50.19662 13.30887 28996 ft 408 kts 265°
2026-05-06 19:02 50.19653 13.26447 29397 ft 410 kts 266°
2026-05-06 19:02 50.19642 13.21992 29777 ft 412 kts 265°
2026-05-06 19:03 50.19689 13.17504 30108 ft 417 kts 272°
2026-05-06 19:03 50.20278 13.13032 30450 ft 423 kts 279°
2026-05-06 19:03 50.21004 13.08573 30763 ft 425 kts 279°
2026-05-06 19:03 50.21749 13.04095 31077 ft 427 kts 279°
2026-05-06 19:04 50.22504 12.99603 31379 ft 428 kts 279°
2026-05-06 19:04 50.23257 12.95106 31755 ft 428 kts 279°
2026-05-06 19:04 50.24003 12.90624 32158 ft 426 kts 279°
2026-05-06 19:04 50.24738 12.86144 32579 ft 425 kts 279°
2026-05-06 19:05 50.25465 12.81680 33004 ft 423 kts 279°
2026-05-06 19:05 50.26187 12.77238 33437 ft 421 kts 278°
2026-05-06 19:05 50.26905 12.72804 33852 ft 420 kts 278°
2026-05-06 19:05 50.27620 12.68383 34195 ft 419 kts 278°
2026-05-06 19:06 50.28333 12.63961 34498 ft 420 kts 278°
2026-05-06 19:06 50.29045 12.59525 34784 ft 421 kts 278°
2026-05-06 19:06 50.29756 12.55081 35069 ft 422 kts 278°
2026-05-06 19:06 50.30466 12.50627 35357 ft 424 kts 278°
2026-05-06 19:07 50.31179 12.46143 35571 ft 426 kts 278°
2026-05-06 19:07 50.31897 12.41636 35824 ft 427 kts 278°
2026-05-06 19:07 50.32613 12.37132 36088 ft 428 kts 279°
2026-05-06 19:07 50.33333 12.32609 36351 ft 428 kts 279°
2026-05-06 19:08 50.34052 12.28079 36612 ft 429 kts 279°
2026-05-06 19:08 50.34767 12.23547 36854 ft 430 kts 278°
2026-05-06 19:08 50.35480 12.19007 37084 ft 430 kts 278°
2026-05-06 19:08 50.36195 12.14450 37325 ft 431 kts 278°
2026-05-06 19:09 50.36908 12.09886 37557 ft 431 kts 278°
2026-05-06 19:09 50.37618 12.05317 37774 ft 433 kts 279°
2026-05-06 19:09 50.38327 12.00735 37812 ft 433 kts 279°
2026-05-06 19:10 50.39741 11.91566 37809 ft 433 kts 279°
2026-05-06 19:10 50.41157 11.82375 37809 ft 433 kts 279°
2026-05-06 19:11 50.42560 11.73198 37808 ft 433 kts 279°
2026-05-06 19:11 50.43958 11.63994 37808 ft 433 kts 278°
2026-05-06 19:12 50.45346 11.54776 37824 ft 435 kts 278°
2026-05-06 19:12 50.46734 11.45531 37819 ft 436 kts 278°
2026-05-06 19:13 50.48119 11.36269 37815 ft 436 kts 278°
2026-05-06 19:13 50.49495 11.27005 37815 ft 436 kts 278°
2026-05-06 19:14 50.50864 11.17728 37835 ft 436 kts 279°
2026-05-06 19:14 50.52225 11.08436 37821 ft 437 kts 278°
2026-05-06 19:15 50.53580 10.99126 37814 ft 437 kts 278°
2026-05-06 19:15 50.54932 10.89806 37816 ft 437 kts 278°
2026-05-06 19:16 50.56284 10.80480 37810 ft 438 kts 278°
2026-05-06 19:16 50.57617 10.71201 37821 ft 438 kts 279°
2026-05-06 19:17 50.58943 10.61851 37808 ft 438 kts 278°
2026-05-06 19:17 50.60262 10.52472 37806 ft 439 kts 278°
2026-05-06 19:18 50.61578 10.43091 37808 ft 439 kts 278°
2026-05-06 19:18 50.62904 10.33633 37809 ft 439 kts 278°
2026-05-06 19:19 50.64203 10.24288 37828 ft 440 kts 278°
2026-05-06 19:19 50.65505 10.14861 37821 ft 441 kts 278°
2026-05-06 19:20 50.66793 10.05411 37825 ft 441 kts 278°
2026-05-06 19:20 50.68079 9.95948 37826 ft 442 kts 278°
2026-05-06 19:21 50.69363 9.86473 37829 ft 442 kts 278°
2026-05-06 19:21 50.70642 9.76991 37845 ft 442 kts 278°
2026-05-06 19:22 50.71907 9.67500 37841 ft 442 kts 278°
2026-05-06 19:22 50.73322 9.58068 37838 ft 444 kts 286°
2026-05-06 19:23 50.75431 9.48885 37843 ft 445 kts 286°
2026-05-06 19:23 50.77528 9.39696 37851 ft 444 kts 286°
2026-05-06 19:24 50.79606 9.30513 37860 ft 444 kts 287°
2026-05-06 19:24 50.81675 9.21328 37858 ft 443 kts 286°
2026-05-06 19:25 50.83739 9.12144 37853 ft 443 kts 286°
2026-05-06 19:25 50.85792 9.02966 37854 ft 442 kts 286°
2026-05-06 19:26 50.87837 8.93784 37853 ft 442 kts 286°
2026-05-06 19:26 50.89880 8.84596 37858 ft 442 kts 286°
2026-05-06 19:27 50.91912 8.75407 37852 ft 442 kts 286°
2026-05-06 19:27 50.93934 8.66193 37857 ft 442 kts 286°
2026-05-06 19:28 50.95948 8.56985 37859 ft 442 kts 286°
2026-05-06 19:28 50.97955 8.47762 37877 ft 442 kts 286°
2026-05-06 19:29 50.99959 8.38527 37872 ft 442 kts 286°
2026-05-06 19:29 51.01939 8.29281 37873 ft 442 kts 285°
2026-05-06 19:30 51.03755 8.19973 37868 ft 441 kts 283°
2026-05-06 19:30 51.05454 8.10611 37884 ft 441 kts 283°
2026-05-06 19:31 51.07138 8.01244 37900 ft 441 kts 283°
2026-05-06 19:31 51.09424 7.88764 37896 ft 442 kts 284°
2026-05-06 19:32 51.11148 7.79382 37891 ft 442 kts 284°
2026-05-06 19:32 51.12859 7.69983 37897 ft 442 kts 283°
2026-05-06 19:33 51.14560 7.60582 37917 ft 442 kts 284°
2026-05-06 19:33 51.16253 7.51164 37894 ft 442 kts 283°
2026-05-06 19:34 51.17934 7.41743 37911 ft 442 kts 283°
2026-05-06 19:34 51.19611 7.32319 37897 ft 442 kts 283°
2026-05-06 19:35 51.21278 7.22884 37908 ft 442 kts 283°
2026-05-06 19:35 51.22940 7.13436 37935 ft 442 kts 283°
2026-05-06 19:36 51.24596 7.03976 37940 ft 443 kts 283°
2026-05-06 19:36 51.26250 6.94502 37938 ft 443 kts 283°
2026-05-06 19:37 51.27896 6.85022 37944 ft 443 kts 283°
2026-05-06 19:37 51.29532 6.75528 37933 ft 443 kts 283°
2026-05-06 19:38 51.31161 6.66038 37944 ft 443 kts 283°
2026-05-06 19:38 51.32776 6.56537 37943 ft 443 kts 283°
2026-05-06 19:39 51.34380 6.47029 37928 ft 443 kts 283°
2026-05-06 19:39 51.35984 6.37513 37946 ft 443 kts 283°
2026-05-06 19:40 51.37580 6.27986 37946 ft 443 kts 283°
2026-05-06 19:40 51.39174 6.18463 37963 ft 443 kts 283°
2026-05-06 19:41 51.40762 6.08918 37961 ft 443 kts 283°
2026-05-06 19:41 51.42343 5.99380 37960 ft 443 kts 283°
2026-05-06 19:42 51.43910 5.89833 37964 ft 443 kts 283°
2026-05-06 19:42 51.45468 5.80287 37961 ft 442 kts 283°
2026-05-06 19:43 51.47006 5.70754 37966 ft 442 kts 283°
2026-05-06 19:43 51.48538 5.61190 37964 ft 442 kts 283°
2026-05-06 19:44 51.50069 5.51629 37966 ft 442 kts 283°
2026-05-06 19:44 51.51598 5.42067 37966 ft 442 kts 283°
2026-05-06 19:45 51.53114 5.32494 37960 ft 442 kts 282°
2026-05-06 19:45 51.54626 5.22921 37971 ft 442 kts 283°
2026-05-06 19:46 51.56125 5.13340 37968 ft 442 kts 283°
2026-05-06 19:46 51.57615 5.03746 37967 ft 442 kts 282°
2026-05-06 19:47 51.59099 4.94158 37965 ft 442 kts 282°
2026-05-06 19:47 51.60574 4.84564 37964 ft 442 kts 282°
2026-05-06 19:48 51.62041 4.74957 37970 ft 442 kts 282°
2026-05-06 19:48 51.63509 4.65342 37974 ft 442 kts 282°
2026-05-06 19:49 51.64963 4.55722 37972 ft 442 kts 282°
2026-05-06 19:49 51.66404 4.46104 37972 ft 443 kts 282°
2026-05-06 19:50 51.67831 4.36543 37976 ft 443 kts 282°
2026-05-06 19:50 51.69268 4.26878 37977 ft 443 kts 282°
2026-05-06 19:51 51.70678 4.17313 37980 ft 443 kts 282°
2026-05-06 19:51 51.72101 4.07631 37981 ft 443 kts 282°
2026-05-06 19:52 51.73510 3.97971 37984 ft 443 kts 282°
2026-05-06 19:52 51.74897 3.88367 37985 ft 442 kts 282°
2026-05-06 19:53 51.76283 3.78717 37991 ft 441 kts 282°
2026-05-06 19:53 51.77661 3.69085 37989 ft 439 kts 282°
2026-05-06 19:54 51.79019 3.59472 37990 ft 438 kts 282°
2026-05-06 19:54 51.80368 3.49883 37985 ft 438 kts 282°
2026-05-06 19:55 51.81714 3.40292 37990 ft 438 kts 281°
2026-05-06 19:55 51.83057 3.30646 37999 ft 436 kts 281°
2026-05-06 19:56 51.84366 3.21095 38005 ft 434 kts 279°
2026-05-06 19:56 51.84549 3.11406 38001 ft 432 kts 264°
2026-05-06 19:57 51.83918 3.01751 38007 ft 431 kts 263°
2026-05-06 19:57 51.83278 2.92095 37995 ft 432 kts 263°
2026-05-06 19:58 51.82641 2.82455 38007 ft 432 kts 264°
2026-05-06 19:58 51.81998 2.72793 37995 ft 432 kts 263°
2026-05-06 19:59 51.81341 2.63135 38008 ft 433 kts 263°
2026-05-06 19:59 51.80677 2.53474 37939 ft 434 kts 263°
2026-05-06 20:00 51.80344 2.48710 37605 ft 431 kts 263°
2026-05-06 20:00 51.80007 2.43904 37035 ft 429 kts 263°
2026-05-06 20:00 51.79670 2.39120 36379 ft 429 kts 263°
2026-05-06 20:00 51.79327 2.34328 35690 ft 430 kts 263°
2026-05-06 20:01 51.78978 2.29518 34934 ft 433 kts 263°
2026-05-06 20:01 51.78625 2.24673 34134 ft 435 kts 263°
2026-05-06 20:01 51.78278 2.19802 33163 ft 439 kts 264°
2026-05-06 20:01 51.77968 2.14892 32231 ft 440 kts 265°
2026-05-06 20:02 51.77687 2.09956 31272 ft 442 kts 265°
2026-05-06 20:02 51.77415 2.05023 30504 ft 440 kts 265°
2026-05-06 20:02 51.77141 2.00131 29950 ft 434 kts 265°
2026-05-06 20:02 51.76866 1.95305 29298 ft 429 kts 265°
2026-05-06 20:03 51.76588 1.90557 28717 ft 422 kts 264°
2026-05-06 20:03 51.76306 1.85860 28118 ft 417 kts 264°
2026-05-06 20:03 51.76020 1.81234 27534 ft 412 kts 264°
2026-05-06 20:03 51.75732 1.76658 27089 ft 407 kts 264°
2026-05-06 20:04 51.75444 1.72114 26982 ft 407 kts 264°
2026-05-06 20:04 51.75148 1.67492 27012 ft 420 kts 264°
2026-05-06 20:04 51.74849 1.62773 27009 ft 424 kts 264°
2026-05-06 20:04 51.74552 1.58027 26898 ft 427 kts 264°
2026-05-06 20:05 51.74255 1.53282 26280 ft 422 kts 264°
2026-05-06 20:05 51.73960 1.48610 25668 ft 416 kts 264°
2026-05-06 20:05 51.73667 1.44031 25429 ft 403 kts 264°
2026-05-06 20:05 51.73381 1.39622 25302 ft 388 kts 264°
2026-05-06 20:06 51.73102 1.35362 25139 ft 377 kts 264°
2026-05-06 20:06 51.72825 1.31191 24826 ft 372 kts 264°
2026-05-06 20:06 51.72551 1.27056 24455 ft 369 kts 264°
2026-05-06 20:06 51.72280 1.22959 24064 ft 366 kts 264°
2026-05-06 20:07 51.72008 1.18894 23668 ft 364 kts 264°
2026-05-06 20:07 51.71735 1.14851 23205 ft 362 kts 264°
2026-05-06 20:07 51.71463 1.10832 22726 ft 359 kts 264°
2026-05-06 20:07 51.71194 1.06837 22251 ft 357 kts 264°
2026-05-06 20:08 51.70923 1.02877 21783 ft 354 kts 264°
2026-05-06 20:08 51.70651 0.98943 21305 ft 352 kts 264°
2026-05-06 20:08 51.70381 0.95034 20827 ft 349 kts 264°
2026-05-06 20:08 51.70114 0.91155 20356 ft 347 kts 264°
2026-05-06 20:09 51.69849 0.87297 19886 ft 345 kts 264°
2026-05-06 20:09 51.69583 0.83457 19434 ft 343 kts 264°
2026-05-06 20:09 51.69316 0.79641 18984 ft 342 kts 264°
2026-05-06 20:09 51.69046 0.75854 18528 ft 340 kts 264°
2026-05-06 20:10 51.68776 0.72080 18060 ft 338 kts 264°
2026-05-06 20:10 51.68508 0.68349 17564 ft 336 kts 264°
2026-05-06 20:10 51.68239 0.64602 17078 ft 334 kts 264°
2026-05-06 20:10 51.67972 0.60898 16600 ft 332 kts 264°
2026-05-06 20:11 51.67707 0.57210 16134 ft 330 kts 264°
2026-05-06 20:11 51.67445 0.53546 15673 ft 328 kts 264°
2026-05-06 20:11 51.67183 0.49903 15220 ft 327 kts 264°
2026-05-06 20:11 51.66920 0.46281 14780 ft 325 kts 265°
2026-05-06 20:12 51.66656 0.42681 14365 ft 322 kts 264°
2026-05-06 20:12 51.66392 0.39107 13935 ft 321 kts 264°
2026-05-06 20:12 51.66129 0.35552 13573 ft 316 kts 265°
2026-05-06 20:12 51.65873 0.32095 13421 ft 305 kts 265°
2026-05-06 20:13 51.65626 0.28759 13287 ft 295 kts 265°
2026-05-06 20:13 51.65384 0.25533 13152 ft 285 kts 264°
2026-05-06 20:13 51.65147 0.22412 13019 ft 276 kts 265°
2026-05-06 20:13 51.64925 0.19384 12883 ft 268 kts 265°
2026-05-06 20:14 51.64748 0.16447 12703 ft 259 kts 266°
2026-05-06 20:14 51.64638 0.14545 12399 ft 256 kts 266°
2026-05-06 20:14 51.64415 0.10763 11759 ft 254 kts 266°
2026-05-06 20:14 51.64307 0.08889 11516 ft 253 kts 266°
2026-05-06 20:15 51.64140 0.06078 11186 ft 251 kts 266°
2026-05-06 20:15 51.63969 0.03290 10831 ft 250 kts 266°
2026-05-06 20:15 51.63748 -0.00431 10367 ft 249 kts 266°
2026-05-06 20:15 51.63587 -0.03168 10013 ft 249 kts 266°
2026-05-06 20:16 51.63422 -0.05932 9629 ft 248 kts 266°
2026-05-06 20:16 51.63257 -0.08688 9272 ft 246 kts 266°
2026-05-06 20:16 51.63147 -0.10537 9006 ft 246 kts 266°
2026-05-06 20:16 51.62981 -0.13264 8652 ft 244 kts 266°
2026-05-06 20:17 51.62820 -0.15963 8269 ft 244 kts 267°
2026-05-06 20:17 51.62654 -0.18668 7987 ft 242 kts 266°
2026-05-06 20:17 51.62479 -0.21348 7708 ft 240 kts 266°
2026-05-06 20:17 51.62305 -0.24013 7408 ft 239 kts 265°
2026-05-06 20:18 51.62147 -0.26674 7121 ft 238 kts 265°
2026-05-06 20:18 51.61990 -0.29308 7050 ft 237 kts 267°
2026-05-06 20:18 51.61835 -0.31968 7022 ft 240 kts 266°
2026-05-06 20:18 51.61694 -0.34607 7027 ft 240 kts 266°
2026-05-06 20:19 51.61516 -0.37312 7022 ft 240 kts 260°
2026-05-06 20:19 51.61134 -0.39897 7030 ft 241 kts 255°
2026-05-06 20:19 51.60701 -0.42493 7030 ft 241 kts 256°
2026-05-06 20:19 51.60254 -0.45091 7029 ft 241 kts 256°
2026-05-06 20:20 51.59803 -0.47682 7025 ft 241 kts 255°
2026-05-06 20:20 51.59358 -0.50281 7025 ft 241 kts 256°
2026-05-06 20:20 51.58914 -0.52866 6844 ft 239 kts 256°
2026-05-06 20:20 51.58480 -0.55442 6548 ft 238 kts 256°
2026-05-06 20:21 51.58055 -0.58012 6242 ft 238 kts 257°
2026-05-06 20:21 51.57623 -0.60568 5928 ft 237 kts 256°
2026-05-06 20:21 51.57196 -0.63118 5599 ft 236 kts 257°
2026-05-06 20:21 51.56755 -0.65649 5325 ft 234 kts 256°
2026-05-06 20:22 51.56310 -0.68158 5008 ft 233 kts 256°
2026-05-06 20:22 51.55875 -0.70660 4698 ft 232 kts 256°
2026-05-06 20:22 51.55440 -0.73159 4372 ft 232 kts 255°
2026-05-06 20:22 51.55006 -0.75654 4032 ft 232 kts 256°
2026-05-06 20:23 51.54416 -0.78031 3810 ft 227 kts 234°
2026-05-06 20:23 51.53208 -0.79538 3681 ft 219 kts 199°
2026-05-06 20:23 51.51764 -0.79930 3560 ft 209 kts 183°
2026-05-06 20:23 51.50323 -0.79984 3443 ft 200 kts 171°
2026-05-06 20:24 51.49127 -0.79088 3345 ft 192 kts 131°
2026-05-06 20:24 51.48342 -0.77377 3246 ft 190 kts 118°
2026-05-06 20:24 51.47751 -0.75492 3144 ft 188 kts 102°
2026-05-06 20:24 51.47617 -0.73436 3079 ft 185 kts 86°
2026-05-06 20:25 51.47632 -0.71340 2918 ft 185 kts 87°
2026-05-06 20:25 51.47644 -0.69319 2697 ft 183 kts 86°
2026-05-06 20:25 51.47656 -0.67303 2491 ft 179 kts 86°
2026-05-06 20:25 51.47667 -0.65313 2222 ft 178 kts 86°
2026-05-06 20:26 51.47677 -0.63368 1968 ft 169 kts 86°
2026-05-06 20:26 51.47686 -0.61564 1753 ft 154 kts 85°
2026-05-06 20:26 51.47694 -0.59942 1534 ft 140 kts 85°
2026-05-06 20:26 51.47702 -0.58390 1361 ft 138 kts 85°
2026-05-06 20:27 51.47710 -0.56847 1170 ft 138 kts 86°
2026-05-06 20:27 51.47718 -0.55299 980 ft 139 kts 85°
2026-05-06 20:27 51.47722 -0.53760 794 ft 138 kts 85°
2026-05-06 20:27 51.47739 -0.52230 605 ft 136 kts 86°
2026-05-06 20:28 51.47740 -0.50721 380 ft 135 kts 87°
2026-05-06 20:28 51.47749 -0.49216 231 ft 135 kts 86°
2026-05-06 20:28 51.47757 -0.47735 89 ft 127 kts 94°
2026-05-06 20:28 51.47760 -0.46538 91 ft 77 kts 90°
2026-05-06 20:29 51.47760 -0.45853 85 ft 55 kts 89°
2026-05-06 20:29 51.47718 -0.45480 87 ft 18 kts 147°
2026-05-06 20:29 51.47620 -0.45480 86 ft 16 kts 202°
2026-05-06 20:29 51.47597 -0.45681 86 ft 23 kts 269°
2026-05-06 20:30 51.47594 -0.45985 90 ft 31 kts 270°
2026-05-06 20:30 51.47592 -0.46691 86 ft 32 kts 269°
2026-05-06 20:30 51.47583 -0.47029 90 ft 31 kts 269°
2026-05-06 20:31 51.47583 -0.47358 86 ft 30 kts 270°
2026-05-06 20:31 51.47581 -0.47689 87 ft 30 kts 270°
2026-05-06 20:31 51.47580 -0.48021 88 ft 29 kts 269°
2026-05-06 20:31 51.47577 -0.48324 86 ft 27 kts 269°
2026-05-06 20:32 51.47532 -0.48476 89 ft 16 kts 184°
2026-05-06 20:32 51.47408 -0.48474 86 ft 19 kts 180°
2026-05-06 20:32 51.47264 -0.48473 86 ft 21 kts 180°
2026-05-06 20:32 51.47123 -0.48472 88 ft 21 kts 180°
2026-05-06 20:33 51.46979 -0.48470 90 ft 20 kts 179°
2026-05-06 20:33 51.46907 -0.48468 87 ft 7 kts 184°
2026-05-06 20:33 51.46877 -0.48538 86 ft 9 kts 267°
2026-05-06 20:33 51.46909 -0.48572 86 ft 4 kts 356°
2026-05-06 20:34 51.46929 -0.48573 86 ft 2 kts 359°
2026-05-06 20:34 51.46931 -0.48573 86 ft 0 kts 359°